Hourly Data Report for September 05, 2017

All times are specified in Local Standard Time (LST). Add 1 hour to adjust for Daylight Saving Time where and when it is observed.

PANGNIRTUNG
NUNAVUT

66°08'36.300" N
65°42'40.500" W
22.60 m
2403049
71826
WXP

Download Data

Hourly Data (September 2017)
Hourly Data Report for September 5, 2017
Temp Definition
°C
Dew Point Temp Definition
°C
Rel Hum Definition
%
Wind Dir Definition
10's deg

Wind Spd Definition
km/h
Visibility Definition
km
Stn Press Definition
kPa
Hmdx Definition


Wind Chill Definition


Weather Definition


TIME
00:00 1.8 0.9 94 24 13   100.67     LegendNANA
01:00 1.8 0.8 93 24 12   100.65     LegendNANA
02:00 1.7 0.7 93 24 14   100.64     LegendNANA
03:00 1.3 0.5 94 24 15   100.64     LegendNANA
04:00 1.1 0.4 95 23 11   100.65     LegendNANA
05:00 1.5 0.7 94 24 13   100.64     LegendNANA
06:00 2.1 1.1 93 25 11   100.65     LegendNANA
07:00 2.3 1.0 91 25 9   100.63     LegendNANA
08:00 2.5 1.1 90 25 15   100.62     LegendNANA
09:00 3.0 1.5 90 25 14   100.59     LegendNANA
10:00 3.3 1.3 87 25 16   100.55     LegendNANA
11:00 4.0 1.0 81 25 10   100.48     LegendNANA
12:00 4.0 0.9 80 26 19   100.46     LegendNANA
13:00 4.6 1.1 78 26 19   100.44     LegendNANA
14:00 4.6 0.9 77 26 22   100.41     LegendNANA
15:00 4.1 0.2 76 25 21   100.40     LegendNANA
16:00 3.7 -0.2 76 25 24   100.39     LegendNANA
17:00 3.6 -0.3 75 25 22   100.37     LegendNANA
18:00 3.1 -0.4 78 25 18   100.37     LegendNANA
19:00 2.9 -0.3 79 24 13   100.37     LegendNANA
20:00 2.8 -0.3 80 24 8   100.35     LegendNANA
21:00 2.7 0.1 83 24 7   100.33     LegendNANA
22:00 2.4 -0.1 83 23 6   100.31     LegendNANA
23:00 2.4 -0.1 84 22 5   100.29     LegendNANA

Notes on Data Quality.

Legend

  • E = Estimated
  • M = Missing
  • NA = Not Available
  • ‡ = Partner data that is not subject to review by the National Climate Archives
Date modified: